TimeEST,TemperatureF,Dew PointF,Humidity,Sea Level PressureIn,VisibilityMPH,Wind Direction,Wind SpeedMPH,Gust SpeedMPH,PrecipitationIn,Events,Conditions,WindDirDegrees,DateUTC
12:04 AM,24.8,19.4,80,30.38,10.0,WNW,4.6,-,0.00,Snow,Light Snow,300,2013-11-13 05:04:00
12:54 AM,25.0,16.0,69,30.42,9.0,NNW,8.1,-,0.00,,Scattered Clouds,330,2013-11-13 05:54:00
1:54 AM,24.1,15.1,69,30.43,10.0,NW,5.8,-,N/A,,Scattered Clouds,320,2013-11-13 06:54:00
2:54 AM,23.0,14.0,68,30.43,10.0,NW,4.6,-,N/A,,Scattered Clouds,320,2013-11-13 07:54:00
3:54 AM,21.0,12.9,71,30.43,10.0,WNW,3.5,-,N/A,,Partly Cloudy,300,2013-11-13 08:54:00
4:54 AM,19.9,12.9,74,30.45,10.0,WSW,4.6,-,N/A,,Partly Cloudy,240,2013-11-13 09:54:00
5:54 AM,19.0,14.0,81,30.44,10.0,WSW,5.8,-,N/A,,Partly Cloudy,240,2013-11-13 10:54:00
6:54 AM,19.0,14.0,81,30.45,10.0,WSW,5.8,-,N/A,,Scattered Clouds,250,2013-11-13 11:54:00
7:54 AM,19.9,17.1,89,30.45,10.0,SW,4.6,-,N/A,,Scattered Clouds,220,2013-11-13 12:54:00
8:54 AM,26.1,19.9,78,30.45,10.0,SW,6.9,-,N/A,,Mostly Cloudy,230,2013-11-13 13:54:00
9:54 AM,28.0,21.0,75,30.44,10.0,SW,6.9,-,N/A,,Overcast,230,2013-11-13 14:54:00
10:54 AM,32.0,23.0,69,30.43,10.0,WSW,8.1,-,N/A,,Mostly Cloudy,250,2013-11-13 15:54:00
11:54 AM,34.0,21.9,61,30.40,10.0,West,13.8,18.4,N/A,,Mostly Cloudy,260,2013-11-13 16:54:00
12:54 PM,36.0,21.9,57,30.35,10.0,West,13.8,20.7,N/A,,Mostly Cloudy,270,2013-11-13 17:54:00
1:54 PM,36.0,23.0,59,30.33,10.0,West,15.0,24.2,N/A,,Scattered Clouds,260,2013-11-13 18:54:00
2:54 PM,37.9,21.9,53,30.31,10.0,West,17.3,32.2,N/A,,Partly Cloudy,260,2013-11-13 19:54:00
3:54 PM,37.9,24.1,57,30.29,10.0,WSW,13.8,26.5,N/A,,Partly Cloudy,240,2013-11-13 20:54:00
4:54 PM,36.0,26.1,67,30.27,10.0,SW,17.3,23.0,N/A,,Mostly Cloudy,230,2013-11-13 21:54:00
5:54 PM,35.1,26.1,70,30.25,10.0,SW,17.3,24.2,N/A,,Partly Cloudy,230,2013-11-13 22:54:00
6:54 PM,35.1,25.0,67,30.25,10.0,SW,13.8,-,N/A,,Partly Cloudy,230,2013-11-13 23:54:00
7:54 PM,34.0,21.0,59,30.23,10.0,SW,16.1,25.3,N/A,,Scattered Clouds,230,2013-11-14 00:54:00
8:54 PM,34.0,19.9,56,30.18,10.0,SW,16.1,24.2,N/A,,Mostly Cloudy,220,2013-11-14 01:54:00
9:54 PM,35.1,19.0,52,30.14,10.0,SW,20.7,28.8,N/A,,Overcast,230,2013-11-14 02:54:00
10:54 PM,35.1,18.0,50,30.12,10.0,SW,18.4,-,N/A,,Scattered Clouds,230,2013-11-14 03:54:00
11:54 PM,36.0,17.1,46,30.09,10.0,SW,21.9,29.9,N/A,,Scattered Clouds,230,2013-11-14 04:54:00